• In Moldova, Republic
  • List of Countries
  • For 7 days
  • Water Temperature
  • Satellite Maps
  • Weather Map
  • Weather Widgets
  • user-avatar
    Login

    Hourly Weather Innsbruck

    Today, 28 April, Friday

    Time Temperature Precipitation Wind Pressure Humidity
    00:00 -6°C° 1 mm 1 mps 586 mmHg 98%
    01:00 -7°C° 0 mm 0 mps 586 mmHg 98%
    02:00 -7°C° 0.7 mm 0 mps 585 mmHg 98%
    03:00 -7°C° 0.7 mm 1 mps 585 mmHg 98%
    04:00 -7°C° 0.7 mm 1 mps 585 mmHg 98%
    05:00 -7°C° 1.1 mm 1 mps 585 mmHg 98%
    06:00 -6°C° 1.1 mm 1 mps 585 mmHg 98%
    07:00 -7°C° 0 mm 1 mps 585 mmHg 97%
    08:00 -6°C° 1.4 mm 1 mps 585 mmHg 97%
    09:00 -6°C° 1.4 mm 1 mps 586 mmHg 97%
    10:00 -7°C° 1.4 mm 2 mps 586 mmHg 96%
    11:00 -6°C° 1.1 mm 2 mps 587 mmHg 96%
    12:00 -6°C° 1.1 mm 2 mps 587 mmHg 96%
    13:00 -5°C° 1.1 mm 2 mps 588 mmHg 95%
    14:00 -5°C° 0.8 mm 2 mps 588 mmHg 95%
    15:00 -5°C° 0.8 mm 2 mps 588 mmHg 95%
    16:00 -5°C° 0.8 mm 2 mps 589 mmHg 95%
    17:00 -6°C° 0.5 mm 2 mps 589 mmHg 95%
    18:00 -6°C° 0.5 mm 2 mps 589 mmHg 96%
    19:00 -7°C° 0.5 mm 2 mps 589 mmHg 96%
    20:00 -8°C° 0.2 mm 2 mps 589 mmHg 96%
    21:00 -9°C° 0.2 mm 2 mps 590 mmHg 96%
    22:00 -9°C° 0.2 mm 2 mps 590 mmHg 97%
    23:00 -9°C° 0.1 mm 1 mps 590 mmHg 97%

    Tomorrow, 29 April, Saturday

    Time Temperature Precipitation Wind Pressure Humidity
    00:00 -10°C° 0.1 mm 1 mps 590 mmHg 96%
    01:00 -11°C° 0.1 mm 1 mps 589 mmHg 96%
    02:00 -12°C° 0 mm 1 mps 589 mmHg 96%
    03:00 -13°C° 0 mm 1 mps 589 mmHg 96%
    04:00 -14°C° 0 mm 1 mps 588 mmHg 96%
    05:00 -12°C° 0 mm 1 mps 589 mmHg 95%
    06:00 -9°C° 0 mm 1 mps 591 mmHg 94%
    07:00 -7°C° 0 mm 1 mps 592 mmHg 94%
    08:00 -4°C° 0 mm 1 mps 593 mmHg 94%
    09:00 -3°C° 0 mm 0 mps 593 mmHg 94%
    10:00 -2°C° 0 mm 0 mps 594 mmHg 93%
    11:00 -1°C° 0 mm 0 mps 594 mmHg 93%
    12:00 -1°C° 0 mm 0 mps 594 mmHg 93%
    13:00 0°C° 0 mm 1 mps 594 mmHg 93%
    14:00 0°C° 0 mm 0 mps 594 mmHg 93%
    15:00 0°C° 0 mm 0 mps 594 mmHg 93%
    16:00 0°C° 0 mm 0 mps 593 mmHg 93%
    17:00 -1°C° 0 mm 0 mps 593 mmHg 95%
    18:00 -2°C° 0 mm 0 mps 592 mmHg 96%
    19:00 -4°C° 0 mm 0 mps 592 mmHg 97%
    20:00 -3°C° 0 mm 1 mps 592 mmHg 97%
    21:00 -4°C° 0 mm 1 mps 592 mmHg 97%
    22:00 -6°C° 0 mm 1 mps 592 mmHg 97%
    23:00 -6°C° 0 mm 1 mps 592 mmHg 97%

    Day after tomorrow, 30 April, Sunday

    Time Temperature Precipitation Wind Pressure Humidity
    00:00 -7°C° 0 mm 2 mps 591 mmHg 96%
    01:00 -8°C° 0 mm 2 mps 591 mmHg 96%
    02:00 -8°C° 0 mm 2 mps 591 mmHg 96%
    03:00 -8°C° 0 mm 2 mps 591 mmHg 96%
    04:00 -8°C° 0 mm 2 mps 591 mmHg 96%
    05:00 -7°C° 0 mm 2 mps 591 mmHg 96%
    06:00 -5°C° 0 mm 2 mps 592 mmHg 95%
    07:00 -4°C° 0 mm 2 mps 592 mmHg 94%
    08:00 -3°C° 0 mm 2 mps 593 mmHg 94%
    09:00 -2°C° 0 mm 2 mps 593 mmHg 93%
    10:00 +2°C° 0 mm 1 mps 593 mmHg 92%
    11:00 +2°C° 0 mm 1 mps 593 mmHg 92%
    12:00 +3°C° 0 mm 1 mps 593 mmHg 91%
    13:00 +3°C° 0 mm 2 mps 593 mmHg 90%
    14:00 +3°C° 0 mm 2 mps 592 mmHg 90%
    15:00 +3°C° 0 mm 2 mps 592 mmHg 90%
    16:00 +4°C° 0 mm 1 mps 592 mmHg 90%
    17:00 +3°C° 0 mm 1 mps 591 mmHg 92%
    18:00 +1°C° 0 mm 1 mps 590 mmHg 94%
    19:00 0°C° 0 mm 1 mps 590 mmHg 96%
    20:00 -3°C° 0 mm 2 mps 590 mmHg 96%
    21:00 -3°C° 0 mm 2 mps 590 mmHg 97%
    22:00 -4°C° 0 mm 2 mps 590 mmHg 97%
    23:00 -4°C° 0 mm 2 mps 590 mmHg 97%

    1 May, Monday

    Time Temperature Precipitation Wind Pressure Humidity
    00:00 -4°C° 0 mm 2 mps 590 mmHg 96%
    01:00 -4°C° 0 mm 2 mps 589 mmHg 96%
    02:00 -4°C° 0 mm 2 mps 589 mmHg 96%
    03:00 -4°C° 0 mm 2 mps 589 mmHg 96%
    04:00 -5°C° 0 mm 2 mps 589 mmHg 95%
    05:00 -4°C° 0 mm 2 mps 589 mmHg 94%
    06:00 -3°C° 0 mm 2 mps 590 mmHg 93%
    07:00 0°C° 0 mm 1 mps 590 mmHg 92%
    08:00 0°C° 0.4 mm 1 mps 591 mmHg 92%
    09:00 +1°C° 0.4 mm 1 mps 591 mmHg 91%
    10:00 +1°C° 0.4 mm 2 mps 592 mmHg 91%
    11:00 -1°C° 1.7 mm 2 mps 592 mmHg 92%
    12:00 -1°C° 1.7 mm 2 mps 592 mmHg 93%
    13:00 -2°C° 1.7 mm 2 mps 592 mmHg 94%
    14:00 -3°C° 1.4 mm 2 mps 592 mmHg 95%
    15:00 -3°C° 1.4 mm 2 mps 592 mmHg 95%
    16:00 -4°C° 1.4 mm 2 mps 592 mmHg 95%
    17:00 -5°C° 0.6 mm 2 mps 592 mmHg 95%
    18:00 -5°C° 0.6 mm 2 mps 592 mmHg 96%
    19:00 -6°C° 0.6 mm 2 mps 592 mmHg 96%
    20:00 -7°C° 0.1 mm 2 mps 591 mmHg 96%
    21:00 -7°C° 0.1 mm 1 mps 591 mmHg 96%
    22:00 -8°C° 0.1 mm 1 mps 591 mmHg 96%
    23:00 -9°C° 0 mm 1 mps 590 mmHg 96%

    2 May, Tuesday

    Time Temperature Precipitation Wind Pressure Humidity
    00:00 -11°C° 0 mm 1 mps 589 mmHg 96%
    01:00 -12°C° 0 mm 1 mps 588 mmHg 96%
    02:00 -12°C° 0 mm 1 mps 588 mmHg 95%
    03:00 -12°C° 0 mm 1 mps 589 mmHg 94%
    04:00 -11°C° 0 mm 1 mps 589 mmHg 93%
    05:00 -9°C° 0 mm 1 mps 590 mmHg 92%
    06:00 -6°C° 0 mm 1 mps 591 mmHg 90%
    07:00 -2°C° 0 mm 1 mps 592 mmHg 89%
    08:00 -1°C° 0 mm 1 mps 593 mmHg 90%
    09:00 0°C° 0 mm 1 mps 593 mmHg 90%
    10:00 +2°C° 0 mm 1 mps 593 mmHg 91%
    11:00 +1°C° 0 mm 2 mps 593 mmHg 91%
    12:00 +2°C° 0 mm 2 mps 593 mmHg 90%
    13:00 +2°C° 0 mm 2 mps 593 mmHg 89%
    14:00 +2°C° 0.1 mm 2 mps 592 mmHg 90%
    15:00 +2°C° 0.1 mm 2 mps 592 mmHg 91%
    16:00 +2°C° 0.1 mm 2 mps 592 mmHg 91%
    17:00 +2°C° 0.3 mm 2 mps 591 mmHg 93%
    18:00 +2°C° 0.3 mm 1 mps 591 mmHg 95%
    19:00 +1°C° 0.3 mm 1 mps 590 mmHg 96%
    20:00 0°C° 0.3 mm 1 mps 590 mmHg 97%
    21:00 0°C° 0.3 mm 1 mps 590 mmHg 97%
    22:00 -1°C° 0.3 mm 1 mps 589 mmHg 97%
    23:00 -1°C° 1.6 mm 1 mps 590 mmHg 97%

    3 May, Wednesday

    Time Temperature Precipitation Wind Pressure Humidity
    00:00 -1°C° 1.6 mm 1 mps 590 mmHg 98%
    01:00 -1°C° 1.6 mm 1 mps 590 mmHg 98%
    02:00 -1°C° 1.9 mm 1 mps 590 mmHg 98%
    03:00 -4°C° 1.9 mm 2 mps 590 mmHg 98%
    04:00 -4°C° 1.9 mm 2 mps 590 mmHg 98%
    05:00 -4°C° 1 mm 2 mps 590 mmHg 98%
    06:00 -2°C° 1 mm 1 mps 590 mmHg 97%
    07:00 -2°C° 1 mm 1 mps 590 mmHg 97%
    08:00 -4°C° 0.8 mm 2 mps 590 mmHg 97%
    09:00 -3°C° 0.8 mm 2 mps 591 mmHg 96%
    10:00 -2°C° 0.8 mm 2 mps 591 mmHg 96%
    11:00 -2°C° 0.8 mm 2 mps 591 mmHg 96%
    12:00 -2°C° 0.8 mm 2 mps 591 mmHg 95%
    13:00 -2°C° 0.8 mm 2 mps 591 mmHg 95%
    14:00 -2°C° 0.9 mm 2 mps 591 mmHg 95%
    15:00 -2°C° 0.9 mm 2 mps 591 mmHg 95%
    16:00 -2°C° 0.9 mm 2 mps 591 mmHg 95%
    17:00 -2°C° 0.4 mm 2 mps 591 mmHg 96%
    18:00 0°C° 0.4 mm 1 mps 591 mmHg 96%
    19:00 -1°C° 0.4 mm 1 mps 591 mmHg 97%
    20:00 -2°C° 0.3 mm 1 mps 591 mmHg 97%
    21:00 -2°C° 0.3 mm 1 mps 591 mmHg 97%
    22:00 -3°C° 0.3 mm 1 mps 591 mmHg 98%
    23:00 -4°C° 0.2 mm 1 mps 591 mmHg 98%
    Show more